Hourly Weather Roundup
Issued by NWS Central Illinois

Home | Current Version | Previous Version | Text Only | Print | Product List | Glossary On
Versions: 1 2 3 4 5 6 7 8 9 10 11 12 13 14 15 16 17 18 19 20 21 22 23 24 25 26 27 28 29 30 31 32 33 34 35 36 37 38 39 40 41 42 43 44 45 46 47 48 49 50
000
NZUS43 KILX 311310
HWRILX

AREA WEATHER ROUNDUP
NATIONAL WEATHER SERVICE, LINCOLN IL
800 AM CDT TUE MAY 31 2016


CITY           SKY/WX    TMP DP  RH WIND       PRES   REMARKS
BLOOMINGTON    PTSUNNY   72  64  75 S6        30.00S
CHAMPAIGN      CLOUDY    71  61  70 SE5       30.00S
DANVILLE       CLOUDY    70  63  78 S3        29.98S
DECATUR        CLOUDY    71  64  78 E3        29.99S
EFFINGHAM      CLOUDY    73  66  79 CALM      30.01S
FLORA          CLOUDY    75  67  76 NE3       29.99S
GALESBURG      CLOUDY    70  63  77 SW3       29.99R
JACKSONVILLE   LGT RAIN  69  64  83 W5        29.99S
LACON          CLOUDY    71  62  73 CALM      29.97F
LAWRENCEVILLE  CLOUDY    71  64  78 E5        30.00R
LITCHFIELD     CLOUDY    70  61  73 E3        29.98S
$$


CITY           SKY/WX    TMP DP  RH WIND       PRES   REMARKS
LINCOLN        CLOUDY    70  65  83 CALM      29.98S
MACOMB         CLOUDY    67  62  82 SW7       30.01S
MATTOON          N/A     70  62  76 E3        29.99S
MT CARMEL AP   PTSUNNY   70  65  84 CALM      30.00R
OLNEY-NOBLE AP CLOUDY    72  64  78 CALM      30.00R
PARIS          CLOUDY    70  66  88 CALM      30.01F
PEORIA         CLOUDY    71  64  78 SE3       29.98S
PONTIAC        PTSUNNY   73  64  74 CALM      30.00R
RANTOUL        PTSUNNY   74  62  65 S3        30.00S
ROBINSON       MOSUNNY   68  65  90 CALM      30.01S
SPRINGFIELD    CLOUDY    73  63  70 CALM      29.99R
TAYLORVILLE    CLOUDY    72  64  77 CALM      29.98F
$$

...REGIONAL REPORTS...


CITY           SKY/WX    TMP DP  RH WIND       PRES   REMARKS
CHICAGO O`HARE PTSUNNY   73  54  51 NE9       30.00S
KANKAKEE       CLOUDY    71  58  63 SE6       30.01S
MOLINE         PTSUNNY   72  64  76 CALM      29.96S
MOUNT STERLING CLOUDY    67  64  88 CALM      29.99F
MOUNT VERNON   SUNNY     73  64  73 NE5       29.99S
PITTSFIELD     CLOUDY    69  65  86 CALM      30.01S
QUINCY         CLOUDY    68  63  84 CALM      29.99S
ROCKFORD       CLOUDY    68  59  73 SE7       30.01R
$$


CITY           SKY/WX    TMP DP  RH WIND       PRES   REMARKS
BURLINGTON     CLOUDY    68  63  84 W6        29.99R
CEDAR RAPIDS   MOSUNNY   68  64  87 S8        29.97R
DES MOINES     CLOUDY    67  59  75 S10       29.93F
KIRKSVILLE     CLOUDY    65  62  90 NW3       30.00S
OTTUMWA        CLOUDY    64  61  90 S8        29.97F
ST LOUIS       LGT RAIN  71  62  73 N3        29.99F
$$


CITY           SKY/WX    TMP DP  RH WIND       PRES   REMARKS
TERRE HAUTE    CLOUDY    70  63  78 CALM      30.00S
EVANSVILLE     MOSUNNY   70  62  76 NE3       29.99S
INDIANAPOLIS   PTSUNNY   73  62  68 SW5       30.01R
LAFAYETTE      CLOUDY    69  61  75 E3        30.00S
MADISON        PTSUNNY   70  55  59 SE10      29.98S
MILWAUKEE      MOSUNNY   70  55  59 NE9       30.03S
$$






USA.gov is the U.S. government's official web portal to all federal, state and local government web resources and services.